Location: Unspecified
(58.9933°N, 5.6375°E)
Time: 22:49:04
(UTC+02:00)

Resurs 1-4 Rocket - Visible Passes

Search period start: 18 April 2015 00:00
Search period end: 28 April 2015 00:00
Orbit: 799 x 815 km, 98.4° (Epoch: 17 April)

Date Brightness Start Highest point End Pass type
(mag) Time Alt. Az. Time Alt. Az. Time Alt. Az.
18 Apr 3.6 04:44:29 10° NNE 04:49:20 36° E 04:54:12 10° SSE visible
19 Apr 4.1 04:20:15 10° NNE 04:24:34 26° E 04:28:58 10° SE visible
20 Apr 4.6 03:56:13 10° NE 03:59:43 18° E 04:03:21 10° SE visible
21 Apr 4.8 03:32:42 10° NE 03:34:46 12° ENE 03:37:02 10° ESE visible
21 Apr 2.9 05:10:48 10° NNE 05:15:58 54° E 05:21:09 10° S visible
22 Apr 3.5 04:46:26 10° NNE 04:51:19 38° E 04:56:14 10° SSE visible
23 Apr 4.1 04:22:10 10° NNE 04:26:34 27° E 04:31:01 10° SSE visible
24 Apr 4.5 03:58:06 10° NE 04:01:43 19° E 04:05:28 10° SE visible
25 Apr 4.7 03:34:30 10° NE 03:36:46 13° ENE 03:39:16 10° ESE visible
26 Apr 3.5 04:48:22 10° NNE 04:53:18 39° E 04:58:15 10° SSE visible
27 Apr 4.0 04:24:05 10° NNE 04:28:34 28° E 04:33:05 10° SSE visible
